Regional Weather Roundup
Issued by NWS

Home | Current Version | Previous Version | Graphics & Text | Print | Product List | Glossary On
Versions: 1 2 3 4 5 6 7 8 9 10 11 12 13 14 15 16 17 18 19 20 21 22 23 24 25 26 27 28 29 30 31 32 33 34 35 36 37 38 39 40 41 42 43 44 45 46 47 48 49 50
000
ASUS43 KDMX 240506
RWRIA

WEATHER ROUNDUP FOR IOWA
NATIONAL WEATHER SERVICE DES MOINES IA
1100 PM CST THU NOV 23 2017

NOTE: "FAIR" INDICATES FEW OR NO CLOUDS BELOW 12,000 FEET WITH NO
SIGNIFICANT WEATHER AND/OR OBSTRUCTIONS TO VISIBILITY.

* - THESE STATIONS ARE NOT NWS STATIONS...THUS NOT UNDER NWS
QUALITY CONTROL.  THEY ALSO DO NOT REPORT WEATHER SUCH
AS PRECIPITATION OR FOG.

IAZ001>003-012>014-020>022-031>034-043>046-240600-
   NORTHWEST IOWA

CITY           SKY/WX    TMP DP  RH WIND       PRES   REMARKS
CARROLL *      PTCLDY    52  37  58 SW15G22   29.72F
CHEROKEE *     PTCLDY    51  38  61 S10       29.67F
DENISON *      PTCLDY    50  37  62 S10       29.74F
LE MARS *      PTCLDY    50  39  66 S6        29.66F
ORANGE CITY *  PTCLDY    52  41  66 S12       29.65F
SHELDON *      PTCLDY    52  39  62 S16       29.62F
SIOUX CITY     PTCLDY    53  40  61 S7        29.68F
SPENCER        CLEAR     50  37  61 S13       29.65F
STORM LAKE *   MOCLDY    52  39  62 S13G20    29.68F
$$

IAZ055>058-069>071-079>083-090>094-240600-
   SOUTHWEST IOWA

CITY           SKY/WX    TMP DP  RH WIND       PRES   REMARKS
ATLANTIC *     MOCLDY    48  39  71 S9        29.78F
AUDUBON *      CLOUDY    52  39  62 S10G18    29.77F
CLARINDA *       N/A     50  37  62 S8          N/A
COUNCIL BLFS * MOCLDY    55  41  58 S12       29.75F
CRESTON *      PTCLDY    48  37  66 S13       29.82F
HARLAN  *      MOCLDY    48  37  66 S6        29.79F
LAMONI         PTCLDY    48  36  63 S12       29.83F
RED OAK *      CLOUDY    50  39  66 SW6       29.79F
SHENANDOAH *   CLOUDY    54  39  58 S6        29.80F
$$

IAZ047>049-059>061-072>074-084-240600-
   CENTRAL IOWA

CITY           SKY/WX    TMP DP  RH WIND       PRES   REMARKS
AMES           CLOUDY    41  34  76 SE6       29.77F
ANKENY *       CLOUDY    48  36  61 S8        29.79F
BOONE *        CLOUDY    50  36  57 S8        29.75F
CHARITON *     PTCLDY    45  36  70 S10       29.82F
DES MOINES     CLOUDY    49  35  58 S12       29.79F
GRINNELL*      PTCLDY    41  32  70 S10       29.83F
KNOXVILLE *    MOCLDY    48  34  57 S9        29.80F HAZE
MARSHALLTOWN   CLOUDY    42  32  67 S8        29.78F
NEWTON *       PTCLDY    41  32  70 S9        29.81F
PELLA *        PTCLDY    42  33  68 S5        29.84F
PERRY *          N/A     48  34  59 S10       29.75F
$$

IAZ004>006-015-016-023>025-035-036-240600-
   NORTH CENTRAL IOWA

CITY           SKY/WX    TMP DP  RH WIND       PRES   REMARKS
ALGONA *       PTCLDY    43  36  75 S16       29.68F
CLARION *      MOCLDY    43  34  70 S15       29.71F
ESTHERVILLE    CLEAR     38  33  82 S10       29.64F WCI  31
FORT DODGE *   CLOUDY    47  35  63 S12       29.71F
MASON CITY     PTCLDY    39  31  72 S10       29.72F WCI  32
FOREST CITY *    N/A     41  32  70 S7        29.70F
WEBSTER CITY * MOCLDY    45  34  65 S13       29.71F
IOWA FALLS *     N/A     43  34  69 S12       29.77F
$$

IAZ007>011-017>019-026>030-037>042-050>054-066-240600-
   NORTHEAST IOWA

CITY           SKY/WX    TMP DP  RH WIND       PRES   REMARKS
CEDAR RAPIDS   CLEAR     33  28  81 S6        29.82F WCI  28
CHARLES CITY * MOCLDY    39  30  70 S10       29.75F WCI  32
CLINTON *      CLEAR     33  26  75 S8        29.87F WCI  26
DECORAH *      CLEAR     39  30  70 S10       29.75F WCI  32
DUBUQUE        CLEAR     34  27  75 S10       29.82F WCI  26
MONTICELLO *   CLOUDY    34  28  80 SE8       29.82F WCI  27
OELWEIN *      CLOUDY    36  32  87 S12       29.79F WCI  27
WATERLOO       PTCLDY    39  29  67 S8        29.78F WCI  33
$$

IAZ064-065-067-068-078-240600-
   EAST CENTRAL IOWA

CITY           SKY/WX    TMP DP  RH WIND       PRES   REMARKS
DAVENPORT      CLEAR     33  26  75 S9        29.89F WCI  25
IOWA CITY      CLOUDY    33  27  78 CALM      29.86F
MT. PLEASANT * CLEAR     36  29  76 S5        29.88S WCI  32
MUSCATINE *    CLOUDY    30  25  80 CALM      29.88F
$$

IAZ062-063-075>077-085>089-095>099-240600-
   SOUTHEAST IOWA

CITY           SKY/WX    TMP DP  RH WIND       PRES   REMARKS
BURLINGTON     CLEAR     36  29  75 S5        29.87F WCI  32
FAIRFIELD *    CLEAR     41  30  65 S8        29.85F
FORT MADISON * CLEAR     39  30  70 S5        29.88F
KEOKUK *       CLEAR     41  32  70 S7        29.87F
OSKALOOSA *      N/A     37  31  81 S9        29.84F WCI  30
OTTUMWA        PTCLDY    42  32  67 S10       29.83F
WASHINGTON *   CLOUDY    36  32  87 S10       29.86F WCI  28
$$

ABBREVIATIONS USED IN REMARKS
   TC - TEMPERATURES IN CELSIUS
  WCI - WIND CHILL INDEX
   HX - HEAT INDEX
  VSB - VISIBILITY
$$





USA.gov is the U.S. government's official web portal to all federal, state and local government web resources and services.